Other Public Products
Issued by NWS Charleston, SC

Current Version | Previous Version | Graphics & Text | Print | Product List | Glossary On
Versions: 1 2 3 4 5 6 7 8 9 10 11 12 13 14 15 16 17 18 19 20 21 22 23 24 25 26 27 28 29 30 31 32 33 34 35 36 37 38 39 40 41 42 43 44 45 46 47 48 49 50
000
FPUS82 KCHS 171027
OPUCHS

TEST...KCHS/KSAV Gateway Observations...TEST
National Weather Service Charleston SC
500 AM EST SAT FEB 17 2018

NOTE: "fair" indicates few or no clouds below 12,000 feet with no
significant weather and/or obstructions to visibility.

SCZ050-WAZ558-NCZ071-TXZ119-213-PAZ071-DCZ001-FLZ074-172-MI076-
NYZ176-178-MAZ016-IL014-TNZ027-NJZ106-GAZ044-MD014-171100-

...Gateway Observations for Charleston International...

CITY           SKY/WX    TMP DP  RH WIND       PRES   REMARKS
Chas Airport   CLOUDY    65  54  67 E9        30.14R
Seattle        CLOUDY    46  43  89 S10       30.06F
Charlotte      MOCLDY    54  39  57 NE10      30.19S
Dallas DFW     DRIZZLE   43  40  89 NW14G22   30.10R
Dallas Love    DRIZZLE   42  39  89 NW16G25   30.12R FOG
Philladelphia  FAIR      31  14  49 N10       30.36R WCI  22
Wash National  FAIR      36  24  62 N14       30.36R WCI  27
Baltimore      MOCLDY    31  22  69 NW3       30.35R
Miami          FAIR      67  63  87 CALM      30.17R
Detroit        FAIR      20  16  84 CALM      30.24F
Newark         FAIR      29  14  53 N9        30.34R WCI  20
Laguardia      FAIR      31  16  54 NW14      30.33R WCI  21
J F K          FAIR      30  16  56 N8        30.35R WCI  22
Boston Logan   FAIR      28  12  51 NW12      30.32R WCI  18
Ft. Lauderdale FAIR      66  66 100 CALM      30.16S
Chicago O`Hare FAIR      17   9  70 S6        30.15F WCI   9
Chicago Midway FAIR      17  11  77 S3        30.17F
Houston Bush   MOCLDY    62  59  90 NE3       30.02F
Houston Hobby  CLOUDY    67  67 100 S8        30.02F FOG
Nashville      CLOUDY    41  36  82 E6        30.14F
Atlanta        FAIR      51  48  89 N5        30.12S

$$

GAZ044-118-TXZ119-213-NCZ071-DCZ001-MDZ014-506-PAZ021-071-NJZ106-
NYZ176-178-MAZ106-OHZ011-021-055-MIZ076-KYZ091-ILZ014-INZ047-
MNZ060-ONZ431-171100-

...Gateway Observations for Savannah International...

CITY           SKY/WX    TMP DP  RH WIND       PRES   REMARKS
Savannah Arpt  FAIR      60  59  96 CALM      30.14R
Atlanta        FAIR      51  48  89 N5        30.12S
Charlotte      MOCLDY    54  39  57 NE10      30.19S
Dallas DFW     DRIZZLE   43  40  89 NW14G22   30.10R
Houston Bush   MOCLDY    62  59  90 NE3       30.02F
Wash National  FAIR      36  24  62 N14       30.36R WCI  27
Wash Dulles    FAIR      31  24  75 NE5       30.35R WCI  26
Baltimore      MOCLDY    31  22  69 NW3       30.35R
Philadelphia   FAIR      31  14  49 N10       30.36R WCI  22
Newark         FAIR      29  14  53 N9        30.34R WCI  20
Laguardia      FAIR      31  16  54 NW14      30.33R WCI  21
J F K          FAIR      30  16  56 N8        30.35R WCI  22
Boston         FAIR      28  12  51 NW12      30.32R WCI  18
Pittsburg      CLOUDY    28  19  69 SE6       30.28R WCI  22
Akron          CLOUDY    29  18  63 S7        30.25F WCI  22
Cleveland      CLOUDY    30  19  63 S5        30.28F WCI  25
Cincinnati     CLOUDY    31  28  89 E7        30.20F WCI  24
Columbus       CLOUDY    31  26  80 SE7       30.25F WCI  25
Detroit        FAIR      20  16  84 CALM      30.24F
Chicago O`Hare FAIR      17   9  70 S6        30.15F WCI   9
Minneapolis    CLOUDY    24  14  65 SW10      29.90F WCI  14
Indianapolis   FAIR      26  22  84 CALM      30.20F
Toronto Canada PTCLDY    19  14  79 S5        30.24S WCI  13

$$




USA.gov is the U.S. government's official web portal to all federal, state and local government web resources and services.